#timestamp,LO_Frequency,Hit,StdDev 
1552042815.7,286046998.1,P
1552042835.5,286046998.7,N
1552042855.3,286046996.9,N
1552042875.2,286046998.1,N
1552042895.0,286047000.3,N
1552042895.9,286047000.3,N
1552042915.8,286047001.0,N
1552042935.6,286047002.6,N
1552042955.4,286047003.0,N
1552042975.3,286047005.6,N
1552042995.1,286047001.9,N
1552043015.9,286046998.8,N
1552043035.7,286046997.2,N
1552043055.5,286046995.4,N
1552043075.4,286046995.3,N
1552043095.2,286046995.0,N
1552043115.0,286046995.0,N
1552043115.9,286046995.0,N
1552043135.8,286046995.4,N
1552043155.6,286046995.6,N
1552043175.5,286046996.2,N
1552043195.3,286046996.4,N
1552043215.1,286046995.5,N
1552043235.9,286046993.4,N
1552043255.7,286046995.6,N
1552043275.5,286046996.1,N
1552043295.4,286046996.4,N
1552043315.2,286046996.2,N
1552043335.1,286046995.8,N
1552043336.0,286046995.8,N
1552043355.8,286046995.2,N
1552043375.6,286046995.4,N
1552043395.5,286046994.9,N
1552043415.3,286046995.8,N
1552043435.2,286046997.8,N
1552043455.9,286046995.7,N
1552043475.7,286046995.3,N
1552043495.6,286046995.7,N
1552043515.4,286046993.8,N
1552043535.2,286046996.2,N
1552043555.1,286046997.8,N
1552043556.0,286046997.8,N
1552043575.8,286046997.7,N
1552043595.7,286047001.1,N
1552043645.5,286047000.0,E
1552043655.5,286047002.2,N
1552043675.3,286047001.1,P
1552043695.1,286046999.1,N
1552043715.9,286046997.1,N
1552043735.7,286046997.0,N
1552043755.5,286046998.7,N
1552043775.4,286047000.6,N
1552043795.2,286047000.4,N
1552043815.1,286047001.9,N
1552043816.0,286047001.9,N
1552043835.8,286047003.9,N
1552043855.6,286047004.2,N
1552043875.5,286047004.1,N
1552043895.3,286047003.7,N
1552043915.1,286047004.0,N
1552043935.9,286046999.7,N
1552043955.7,286047002.5,N
1552043975.6,286047002.2,N
1552043995.4,286047000.1,N
1552044015.2,286047000.0,N
1552044035.1,286047000.1,N
1552044036.0,286047000.1,N
1552044055.8,286047002.0,N
1552044075.6,286047003.5,N
1552044095.5,286047002.0,N
1552044115.3,286046998.2,N
1552044135.2,286046995.3,N
1552044155.9,286046994.8,N
1552044175.7,286046992.2,Y
1552044195.6,286046989.0,P
1552044215.4,286046985.5,N
1552044235.2,286046984.8,N
1552044255.1,286046982.4,N
1552044256.0,286046982.4,N
1552044275.8,286046983.4,N
1552044295.7,286046982.9,N
1552044315.5,286046983.4,N
1552044335.3,286046982.5,Y
1552044355.2,286046998.8,P
1552044375.0,286046998.9,N
1552044375.9,286046998.9,N
1552044395.8,286046999.4,N
1552044415.6,286046999.4,N
1552044435.4,286046998.7,N
1552044455.3,286047002.7,N
1552044475.1,286047000.1,N
1552044495.8,286047002.8,N
1552044515.7,286047002.0,N
1552044535.5,286047001.4,N
1552044555.4,286047003.8,N
1552044575.2,286047003.9,N
1552044595.0,286047003.9,N
1552044595.9,286047003.9,N
1552044615.8,286047002.9,N
1552044635.6,286047004.7,N
1552044655.4,286047004.8,N
1552044675.3,286047004.9,N
1552044695.1,286047007.3,N
1552044715.9,286047006.3,N
1552044735.7,286047006.6,N
1552044755.5,286047006.2,N
1552044775.4,286047007.4,N
1552044795.2,286047006.6,N
1552044815.0,286047007.5,N
1552044815.9,286047007.5,N
1552044835.8,286047005.0,N
1552044855.6,286047005.7,N
1552044875.5,286047004.7,N
1552044895.3,286047005.0,N
1552044915.1,286047004.6,N
1552044935.9,286047004.6,N
1552044955.7,286047006.9,N
1552044975.5,286047006.6,N
1552044995.4,286047008.0,Y
1552045015.2,286047004.9,P
1552045035.1,286047004.6,P
1552045036.0,286047004.6,P
1552045055.8,286047004.8,Y
1552045075.6,286047000.0,P
1552045095.5,286047001.3,N
1552045115.3,286047003.0,N
1552045135.2,286047001.7,N
1552045155.9,286047001.5,N
1552045175.7,286047003.3,N
1552045195.6,286047003.7,N
1552045215.4,286047003.2,N
1552045235.3,286047001.5,N
1552045255.1,286047002.2,N
1552045256.0,286047002.2,N
1552045275.8,286047002.6,N
1552045295.7,286047000.4,N
1552045315.5,286047001.0,N
1552045335.3,286046999.0,N
1552045355.2,286046998.8,N
1552045375.0,286047000.8,N
1552045375.9,286047000.8,N
1552045395.8,286046999.6,N
1552045415.6,286046998.9,N
1552045435.4,286046998.4,N
1552045455.3,286046998.6,N
1552045475.1,286046999.8,N
1552045495.8,286047002.8,N
1552045515.7,286047003.2,N
1552045535.5,286047001.6,N
1552045555.4,286047003.1,N
1552045575.2,286047004.4,N
1552045595.0,286047002.6,N
1552045595.9,286047002.6,N
1552045615.8,286046999.8,N
1552045635.6,286047001.9,N
1552045655.5,286047002.4,N
1552045675.3,286047002.0,N
1552045695.1,286047002.0,N
1552045715.9,286046999.8,N
1552045735.7,286047002.1,N
1552045755.5,286047000.1,N
1552045775.4,286047002.2,N
1552045795.2,286047001.8,N
1552045815.1,286047002.3,N
1552045816.0,286047002.3,N
1552045835.8,286046999.8,N
1552045855.6,286047000.0,N
1552045875.5,286047000.7,N
1552045895.3,286046998.5,N
1552045915.1,286046996.6,N
1552045935.9,286046995.8,N
1552045955.7,286046997.9,N
1552045975.6,286046995.6,N
1552045995.4,286046996.4,N
1552046015.2,286046993.5,N
1552046035.1,286046993.7,N
1552046036.0,286046993.7,N
1552046055.8,286046993.3,N
1552046075.7,286046994.0,N
1552046095.5,286046993.6,N
1552046115.3,286046993.6,N
1552046135.2,286046996.0,N
1552046155.9,286046996.1,N
1552046175.7,286046995.5,N
1552046195.6,286046993.7,N
1552046215.4,286046993.8,N
1552046235.3,286046994.5,N
1552046255.1,286046994.0,N
1552046256.0,286046994.0,N
1552046275.8,286046995.5,N
1552046295.7,286046993.9,N
1552046315.5,286046993.3,N
1552046335.3,286046993.3,N
1552046355.2,286046996.2,N
1552046375.0,286046995.4,N
1552046375.9,286046995.4,N
1552046395.8,286046996.1,N
